Weather reports worldwide

Advertisment
Sheffield, United Kingdom (99107): temperature & dewpoint: 11.07.2019 06:00:00 - 17.07.2019 06:00:00 (BST)Sheffield, United Kingdom (99107): sunshine duration: 11.07.2019 06:00:00 - 17.07.2019 06:00:00 (BST)Sheffield, United Kingdom (99107): precipitation: 11.07.2019 06:00:00 - 17.07.2019 06:00:00 (BST)
Date & Time tt [°C] td [°C] sd [min] rr [mm]
17.07.2019 06:00:00 16,0 12,5 0 0,0
17.07.2019 05:00:00 16,4 12,3 0 0,0
17.07.2019 04:00:00 16,2 11,9 0 0,0
17.07.2019 03:00:00 16,7 11,8 0 0,0
17.07.2019 02:00:00 17,7 11,9 0 0,0
17.07.2019 01:00:00 17,7 11,8 - 0,0
17.07.2019 00:00:00 18,1 11,5 0 0,0
16.07.2019 23:00:00 18,8 11,9 0 0,0
16.07.2019 22:00:00 20,1 11,5 0 0,0
16.07.2019 21:00:00 20,8 11,6 0 0,0
16.07.2019 20:00:00 21,6 11,0 0 0,0
16.07.2019 19:00:00 23,2 10,4 18 0,0
16.07.2019 18:00:00 23,6 10,7 36 0,0
16.07.2019 17:00:00 23,8 9,4 48 0,0
16.07.2019 16:00:00 22,9 9,7 60 0,0
16.07.2019 15:00:00 22,0 10,6 24 0,0
16.07.2019 14:00:00 21,3 10,5 6 0,0
16.07.2019 13:00:00 19,4 11,5 0 0,0
16.07.2019 12:00:00 19,2 12,1 0 0,0
16.07.2019 11:00:00 18,4 11,2 0 0,0
16.07.2019 10:00:00 18,8 11,1 0 0,0
16.07.2019 09:00:00 19,4 12,2 0 0,0
16.07.2019 08:00:00 17,9 11,9 0 0,0
16.07.2019 07:00:00 16,7 12,1 0 0,0
16.07.2019 06:00:00 14,5 11,5 0 0,0
16.07.2019 05:00:00 14,2 11,3 0 0,0
16.07.2019 04:00:00 13,5 11,4 0 0,0
16.07.2019 03:00:00 14,2 11,3 0 0,0
16.07.2019 02:00:00 15,1 11,9 0 0,0
16.07.2019 01:00:00 16,0 11,7 - 0,0
16.07.2019 00:00:00 17,1 12,0 0 0,0
15.07.2019 23:00:00 17,8 11,8 0 0,0
15.07.2019 22:00:00 18,8 12,2 0 0,0
15.07.2019 21:00:00 20,3 12,0 18 0,0
15.07.2019 20:00:00 21,6 10,6 18 0,0
15.07.2019 19:00:00 22,8 10,7 60 0,0
15.07.2019 18:00:00 23,2 10,4 54 0,0
15.07.2019 17:00:00 22,1 12,0 30 0,0
15.07.2019 16:00:00 21,8 11,2 12 0,0
15.07.2019 15:00:00 21,3 12,8 12 0,0
15.07.2019 14:00:00 20,5 11,1 24 0,0
15.07.2019 13:00:00 19,7 11,6 12 0,0
15.07.2019 12:00:00 18,8 11,5 18 0,0
15.07.2019 11:00:00 18,8 11,9 60 0,0
15.07.2019 10:00:00 16,3 11,3 60 0,0
15.07.2019 09:00:00 14,3 10,6 24 0,0
15.07.2019 08:00:00 13,0 10,3 0 0,0
15.07.2019 07:00:00 12,3 10,4 0 0,0
15.07.2019 06:00:00 10,9 10,2 0 0,0
15.07.2019 05:00:00 10,2 9,8 0 0,0
15.07.2019 04:00:00 10,0 9,3 0 0,0
15.07.2019 03:00:00 10,4 9,3 0 0,0
15.07.2019 02:00:00 11,4 9,9 0 0,0
15.07.2019 01:00:00 12,4 10,4 - 0,0
15.07.2019 00:00:00 13,5 10,3 0 0,0
14.07.2019 23:00:00 14,6 10,7 0 0,0
14.07.2019 22:00:00 15,7 10,6 0 0,0
14.07.2019 21:00:00 16,8 10,5 6 0,0
14.07.2019 20:00:00 18,1 10,6 60 0,0
14.07.2019 19:00:00 18,9 11,1 6 0,0
14.07.2019 18:00:00 18,9 10,3 36 0,0
14.07.2019 17:00:00 18,4 10,9 0 0,0
14.07.2019 16:00:00 17,5 10,2 0 0,0
14.07.2019 15:00:00 17,6 12,0 0 0,0
14.07.2019 14:00:00 17,4 11,8 0 0,0
14.07.2019 13:00:00 18,7 11,9 0 0,0
14.07.2019 12:00:00 17,7 10,9 0 0,0
14.07.2019 11:00:00 18,0 10,7 0 0,0
14.07.2019 10:00:00 16,8 10,7 30 0,0
14.07.2019 09:00:00 15,3 11,8 0 0,0
14.07.2019 08:00:00 14,0 12,4 0 0,0
14.07.2019 07:00:00 13,6 12,8 0 0,0
14.07.2019 06:00:00 13,8 13,1 0 0,0
14.07.2019 05:00:00 13,9 12,7 0 0,0
14.07.2019 04:00:00 13,9 12,9 0 0,2
14.07.2019 03:00:00 14,2 12,9 0 0,0
14.07.2019 02:00:00 14,5 12,8 0 0,0
14.07.2019 01:00:00 15,2 12,6 - 0,0
14.07.2019 00:00:00 15,9 11,6 0 0,0
13.07.2019 23:00:00 16,4 12,0 0 0,0
13.07.2019 22:00:00 16,8 12,5 0 0,0
13.07.2019 21:00:00 17,6 13,6 0 0,0
13.07.2019 20:00:00 17,9 14,8 0 0,0
13.07.2019 19:00:00 17,8 15,7 0 2,8
13.07.2019 18:00:00 19,7 13,0 0 0,0
13.07.2019 17:00:00 20,1 13,8 0 0,0
13.07.2019 16:00:00 20,2 12,8 0 0,0
13.07.2019 15:00:00 19,7 12,7 0 0,0
13.07.2019 14:00:00 19,2 12,2 18 0,0
13.07.2019 13:00:00 18,5 13,8 6 0,0
13.07.2019 12:00:00 17,4 12,9 0 0,0
13.07.2019 11:00:00 16,8 13,1 0 0,0
13.07.2019 10:00:00 16,2 13,0 0 0,0
13.07.2019 09:00:00 16,3 12,4 0 0,0
13.07.2019 08:00:00 16,1 12,8 0 0,0
13.07.2019 07:00:00 15,4 11,9 0 0,0
13.07.2019 06:00:00 15,0 11,7 0 0,0
13.07.2019 05:00:00 14,7 11,5 0 0,0
13.07.2019 04:00:00 13,9 11,0 0 0,0
13.07.2019 03:00:00 14,3 10,7 0 0,0
13.07.2019 02:00:00 14,6 11,0 0 0,0
13.07.2019 01:00:00 14,7 11,0 - 0,0
13.07.2019 00:00:00 15,2 11,0 0 0,0
12.07.2019 23:00:00 15,7 11,4 0 0,0
12.07.2019 22:00:00 16,6 11,5 0 0,0
12.07.2019 21:00:00 17,5 11,8 6 0,0
12.07.2019 20:00:00 18,5 12,4 30 0,0
12.07.2019 19:00:00 20,7 13,0 60 0,0
12.07.2019 18:00:00 22,1 12,9 60 0,0
12.07.2019 17:00:00 22,7 13,3 54 0,0
12.07.2019 16:00:00 21,0 12,8 24 0,0
12.07.2019 15:00:00 21,4 12,8 36 0,0
12.07.2019 14:00:00 21,3 12,9 36 0,0
12.07.2019 13:00:00 20,9 11,3 36 0,0
12.07.2019 12:00:00 20,1 12,0 - 0,0
12.07.2019 11:00:00 18,8 12,8 - 0,0
12.07.2019 10:00:00 17,6 12,7 - 0,0
12.07.2019 09:00:00 18,9 12,7 - 0,0
12.07.2019 08:00:00 17,1 12,6 - 0,0
12.07.2019 07:00:00 16,6 12,5 - 0,0
12.07.2019 06:00:00 15,2 13,1 - 0,0
12.07.2019 05:00:00 15,3 12,9 - 0,0
12.07.2019 04:00:00 14,5 11,8 - 0,0
12.07.2019 03:00:00 14,2 11,7 - 0,0
12.07.2019 02:00:00 14,5 11,9 - 0,0
12.07.2019 01:00:00 15,9 12,9 - 0,0
12.07.2019 00:00:00 16,4 13,2 - 0,2
11.07.2019 23:00:00 17,4 13,3 - 0,0
11.07.2019 22:00:00 17,4 14,2 - 0,0
11.07.2019 21:00:00 18,2 14,8 - 0,0
11.07.2019 20:00:00 19,2 15,1 - 0,0
11.07.2019 19:00:00 20,8 14,8 - 0,0
11.07.2019 18:00:00 22,3 15,4 - 0,0
11.07.2019 17:00:00 21,9 14,9 - 0,0
11.07.2019 16:00:00 24,0 13,8 - 0,0
11.07.2019 15:00:00 23,1 13,7 - 0,0
11.07.2019 14:00:00 22,1 14,3 - 0,0
11.07.2019 13:00:00 19,9 14,3 - 0,0
11.07.2019 12:00:00 20,0 13,4 - 0,0
11.07.2019 11:00:00 19,2 13,5 - 0,0
11.07.2019 10:00:00 18,8 13,6 - 0,0
11.07.2019 09:00:00 18,1 14,1 - 0,0
11.07.2019 08:00:00 17,3 14,0 - 0,0
11.07.2019 07:00:00 15,9 13,6 - 0,0
11.07.2019 06:00:00 15,4 13,3 - 0,0

tt = temperature
td = dewpoint
sd = sunshine duration
rr = precipitation

Next stations